Flag for Switzerland Weather past 2 weeks in Köniz, Bern, Switzerland

Now
70 °F

Thundershowers. Mostly cloudy.


Feels Like: 70 °F
Forecast: 53 / 72 °F
Wind: 3 mph from North

Location: Bern / Belp

Current Time: Jul 8, 2015 at 2:26:15 AM

Latest Report: Jul 8, 2015 at 1:50 AM


Visibility: N/A

Pressure: 29.95 "Hg (28.00 "Hg at 579m altitude)

Humidity: 100%

Dew point: 70 °F

Location of KönizLocation

Historic Weather in Köniz — Graph

°F

Köniz temperature yesterday

Maximum temperature yesterday: 99 °F (at 3:20 PM)
Minimum temperature yesterday: 64 °F (at 5:20 AM)
Average temperature yesterday: 81 °F

Past Weeks' High & Low Weather Summary

 TemperatureHumidityPressure
High99 °F (Jul 7, 3:20 PM)100% (Jun 23, 1:20 AM)30.30 "Hg (Jun 23, 1:20 AM)
Low43 °F (Jun 24, 4:50 AM)24% (Jun 26, 5:20 PM)29.86 "Hg (Jul 7, 4:20 PM)
Average72 °F67%30.13 "Hg
* Reported Jun 23 1:20 AM — Jul 8 1:20 AM, Köniz, Weather by CustomWeather, © 2015

Note: Actual official high and low records may vary slightly from our data, if they occured in-between our weather recording intervals... More about our weather records

Advertising

Köniz weather history for previous 24 hours

 ConditionsComfort  
Time TempWeatherWind HumidityBarometerVisibility
1:20 AM
Wed, Jul 8
70 °FMostly cloudy.2 mph100%29.95 "HgN/A
12:50 AM70 °FThunderstorms. Partly cloudy.3 mph94%29.95 "HgN/A
12:20 AM72 °FThunderstorms. Passing clouds.3 mph88%29.92 "HgN/A
11:20 PM
Tue, Jul 7
82 °FPartly cloudy.10 mph51%29.92 "HgN/A
10:50 PM84 °FPartly cloudy.12 mph48%29.92 "HgN/A
10:20 PM84 °FPassing clouds.10 mph43%29.89 "HgN/A
9:50 PM88 °FPassing clouds.12 mph35%29.86 "HgN/A
9:20 PM86 °FPassing clouds.6 mph38%29.86 "HgN/A
8:50 PM86 °FPassing clouds.7 mph40%29.86 "HgN/A
8:20 PM90 °FSunny.5 mph33%29.86 "Hg10 mi
7:50 PM90 °FPartly sunny.8 mph33%29.86 "HgN/A
7:20 PM91 °FScattered clouds.5 mph28%29.86 "HgN/A
6:50 PM91 °FScattered clouds.10 mph30%29.86 "HgN/A
6:20 PM93 °FPartly sunny.12 mph26%29.89 "HgN/A
5:50 PM95 °FPartly sunny.12 mph25%29.86 "HgN/A
5:20 PM99 °FScattered clouds.12 mph29%29.86 "HgN/A
4:50 PM99 °FPassing clouds.14 mph25%29.86 "HgN/A
4:20 PM99 °FPassing clouds.8 mph25%29.86 "HgN/A
3:50 PM99 °FPassing clouds.9 mph24%29.89 "HgN/A
3:20 PM99 °FPassing clouds.6 mph31%29.89 "HgN/A
2:50 PM97 °FPassing clouds.7 mph32%29.92 "HgN/A
2:20 PM93 °FSunny.6 mph44%29.92 "Hg10 mi
1:50 PM93 °FSunny.7 mph44%29.95 "Hg10 mi
1:20 PM91 °FSunny.6 mph49%29.95 "Hg10 mi
12:50 PM90 °FSunny.3 mph49%29.98 "Hg10 mi
12:20 PM88 °FSunny.3 mph52%29.98 "Hg10 mi
11:50 AM86 °FSunny.3 mph52%29.98 "Hg10 mi
11:20 AM86 °FPassing clouds.3 mph55%30.01 "HgN/A
10:50 AM84 °FPassing clouds.2 mph55%30.01 "HgN/A
10:20 AM82 °FPassing clouds.1 mph55%30.01 "HgN/A
9:50 AM81 °FPassing clouds.5 mph62%30.04 "HgN/A
9:20 AM79 °FSunny.3 mph65%30.04 "Hg10 mi
8:50 AM79 °FSunny.5 mph70%30.04 "Hg10 mi
8:20 AM75 °FSunny.7 mph78%30.04 "Hg10 mi
7:50 AM73 °FSunny.3 mph83%30.04 "Hg10 mi
7:20 AM70 °FClear.1 mph94%30.04 "Hg5 mi
6:50 AM66 °FClear.1 mph100%30.04 "Hg5 mi
6:20 AM64 °FPassing clouds.1 mph100%30.04 "Hg5 mi
5:50 AM64 °FPassing clouds.2 mph100%30.04 "Hg5 mi
5:20 AM64 °FFog.1 mph100%30.04 "Hg3 mi
4:50 AM66 °FMild.1 mph100%30.04 "Hg5 mi
4:20 AM66 °FMild.No wind94%30.04 "Hg5 mi
3:50 AM66 °FMild.1 mph100%30.04 "Hg4 mi
3:20 AM66 °FPassing clouds.3 mph100%30.07 "Hg6 mi
2:50 AM66 °FPassing clouds.1 mph100%30.07 "Hg4 mi
2:20 AM66 °FMild.1 mph100%30.07 "Hg4 mi
Weather by CustomWeather, © 2015

See weather overviewHow to use our weather pages